This demonstration page uses our WeatherBlox Daily Observations layout. Learn more.

Left ArrowRight Arrow

39.29038, -76.61219

Hourly Observations for September 13, 2020

Temp ( °F °C ) Dew Point ( °F °C ) Humidity (%) Winds ( mph kmh ) Pressure ( in mb ) Visibility ( mi km ) Precip ( " mm )
12:54 am 00:54 Mostly Clear 63 17.2 57 13.9 81 81 Calm 30.20 1023 10 16 0.00 0.00
1:54 am 01:54 Clear 61 16.1 57 13.9 87 87 Calm 30.19 1022 10 16 0.00 0.00
2:54 am 02:54 Mostly Clear 60 15.6 57 13.9 90 90 Calm 30.18 1022 10 16 0.00 0.00
3:54 am 03:54 Mostly Clear 61 16.1 57 13.9 87 87 Calm 30.16 1022 10 16 0.00 0.00
4:54 am 04:54 Clear 59 15 56 13.3 90 90 Calm 30.15 1021 10 16 0.00 0.00
5:54 am 05:54 Clear 59 15 56 13.3 90 90 Calm 30.14 1021 10 16 0.00 0.00
6:54 am 06:54 Mostly Sunny 59 15 56 13.3 90 90 NE 3 6 30.14 1021 10 16 0.00 0.00
7:54 am 07:54 Partly Cloudy 64 17.8 58 14.4 81 81 VRB 3 6 30.13 1020 10 16 0.00 0.00
8:54 am 08:54 Partly Cloudy 67 19.4 60 15.6 79 79 Calm 30.13 1020 10 16 0.00 0.00
9:54 am 09:54 Partly Cloudy 70 21.1 62 16.7 76 76 ENE 5 7 30.12 1020 10 16 0.00 0.00
10:54 am 10:54 Mostly Cloudy 75 23.9 64 17.8 69 69 Calm 30.12 1020 10 16 0.00 0.00
11:37 am 11:37 Mostly Cloudy 76 24.4 64 17.8 67 67 Calm 30.11 1020 10 16 0.00 0.00
11:54 am 11:54 Mostly Cloudy 77 25 64 17.8 64 64 SSW 5 7 30.10 1019 10 16 0.00 0.00
12:54 pm 12:54 Mostly Cloudy 79 26.1 64 17.8 60 60 S 7 11 30.08 1019 10 16 0.00 0.00
1:54 pm 13:54 Mostly Cloudy 80 26.7 64 17.8 58 58 SSW 6 9 30.06 1018 10 16 0.00 0.00
2:54 pm 14:54 Partly Cloudy 82 27.8 64 17.8 55 55 SSW 9 15 30.04 1017 10 16 0.00 0.00
3:54 pm 15:54 Mostly Cloudy 82 27.8 64 17.8 55 55 S 6 9 30.02 1017 10 16 0.00 0.00
4:54 pm 16:54 Mostly Cloudy 83 28.3 65 18.3 55 55 W 5 7 30.01 1016 10 16 0.00 0.00
5:54 pm 17:54 Mostly Cloudy 82 27.8 65 18.3 56 56 SSW 5 7 30.01 1016 10 16 0.00 0.00
6:54 pm 18:54 Mostly Cloudy 78 25.6 69 20.6 74 74 Calm 30.01 1016 10 16 0.00 0.00
7:54 pm 19:54 Mostly Cloudy 76 24.4 69 20.6 79 79 SSE 5 7 30.02 1017 10 16 0.00 0.00
8:54 pm 20:54 Mostly Clear 75 23.9 69 20.6 82 82 S 6 9 30.03 1017 10 16 0.00 0.00
9:54 pm 21:54 Mostly Clear 72 22.2 69 20.6 91 91 SW 3 6 30.03 1017 10 16 0.00 0.00
10:54 pm 22:54 Partly Cloudy 73 22.8 67 19.4 81 81 Calm 30.04 1017 10 16 0.00 0.00
11:54 pm 23:54 Mostly Cloudy 72 22.2 67 19.4 84 84 Calm 30.04 1017 10 16 0.00 0.00

Powered by AerisWeather